Погода в Буденновске

Погода в Буденновске : погода сейчас, прогноз погоды и архив. Всё, что Вы хотите узнать о погоде в Буденновске!

Хотите узнать прогноз погоды в Буденновске? Тогда Вам сюда: Погода в Буденновске

Поиск расширенной информации на нашем сайте:

Полезная информация:

Другие новости

Новости СМИ2

Главная страница сайта

Новости сайта

03.07.2017

Напоминаем, что на нашем специализированном сайте Метеоцентр.Азия вы можете получить высокодетализированные автоматические прогнозы погоды по пунктам России, СНГ и мира в авиационном формате (включающие направление и скорость ветра, видимость, явления погоды, количество и форму облачности, нижнюю и верхнюю границу облачности).

Рекомендуем:

Погода в Буденновске - сегодня

Время (UTC), дата Ветер
(°,м/с) 
Видим.   Явления Облачность Т
(°С)
Тd
(°С)
f(%) Тe
(°С)
Pmin
(гПа)
dP
(гПа)
Po
(мм)
O2
(г/м3)
Тmin Tmax R s Состояние
почвы
09 15.09.19 260 (З) 10 км    4/1 600 м верхняя 
[Cu hum|Ci fib]
+27.2 +4.4 23 +27  1016.8  -1.2  751  275           
12 15.09.19 280 (З) 6-10{10}  10 км    8/4 1000 м верхняя 
[Cu hum|Ci]
+28.6 +2.4 19 +29  1015.8  -0.9  750  273           
15 15.09.19 300 (СЗ) 3{11}  10 км    8/1 600 м верхняя 
[Sc diur, vesp|Ci]
+25.6 +1.7 21 +26  1016.8  0.9  751  276    +28.9       
18 15.09.19 290 (З) 20000 м    ясно 
+19.2 +2.1 32 +20  1018.9  1.7  752  283           
21 15.09.19 350 (С) 20000 м    ясно 
+17.4 +6.2 48 +18  1019.5  0.5  753  284           
00 16.09.19 360 (С) 20000 м    ясно 
+14 +6.9 62 +15  1020.2  0.5  753  288           
03 16.09.19 тихо ()   10 км    ясно 
+9.7 +4.2 69 +10  1020.5  0.1  753  292  +9.7        сухая 
06 16.09.19 100 (В) 10 км    ясно 
+18.6 +5.7 43 +20  1019.2  -0.9  752  283  +9.5         
09 16.09.19 040 (СВ) 10 км    ясно 
+24.1 +5.3 30 +24  1016.2  -2.6  751  277           
12 16.09.19 120 (ЮВ) 10 км    ясно 
+27.6 +4.7 23 +28  1013.3  -2.7  748  273           
15 16.09.19 110 (В) 10 км    3/0 верхняя 
[Ci fib]
+25 +5.3 28 +25  1012.5  -0.9  748  275    +27.9       
18 16.09.19 тихо ()   20000 м    ясно 
+17 +5.6 47 +17  1012.8  0.1  748  283           
21 16.09.19 тихо ()   20000 м    ясно 
+15.2 +5.3 52 +15  1012.7  -0.2  748  284           
00 17.09.19 190 (Ю) 20000 м  осадки на расстоянии  10/10 600 м кучево-дожд. 
[Cb calv]
+17.7 +7.8 52 +19  1012.1  -0.5  747  281           
03 17.09.19 260 (З) 10 км  в посл. час ливневой дождь  10/10 600 м кучево-дожд. 
[Cb calv]
+16.6 +8.9 60 +18  1012.6  0.5  748  282  +14.1    0.1     
06 17.09.19 310 (СЗ) 10 км  слаб. ливневой дождь  10/10 600 м кучево-дожд. 
[Cb calv]
+17.5 +10.8 65 +21  1012.5  0.1  747  281           
09 17.09.19 320 (СЗ) 10 км  {ливн. осадки}  10/10 600 м 
[Sc]
+20.5 +6.9 41 +21  1011.6  -0.7  747  279           
12 17.09.19 270 (З) 10 км  слаб. ливневой дождь  10/10 600 м кучево-дожд. 
[Cb calv]
+18.4 +12.2 67 +23  1011.5  -0.2  747  280           
15 17.09.19 180 (Ю) 10 км  слаб. ливневой дождь  10/10 600 м кучево-дожд. 
[Cb calv]
+16.9 +14.9 88 +27  1011.2  -0.4  746  280    +21.9     
18 17.09.19 200 (Ю) 4000 м  дымка{ливн. осадки}  6/3 600 м средняя, верхняя 
[Sc|Ac trans|Ci fib]
+15.7 +14.2 91 +23  1011.5  -0.4  747  282           
21 17.09.19 180 (Ю) 4000 м  дымка  3/0 верхняя 
[Ci fib]
+14 +12.8 92 +20  1011.9  0.2  747  284           
00 18.09.19 200 (Ю) 4000 м  дымка  8/0 средняя, верхняя 
[Ac trans|Ci fib]
+12.8 +11.2 90 +17  1012.6  0.7  747  286           
03 18.09.19 180 (Ю) 4000 м  дымка  4/0 верхняя 
[Ci fib]
+11.6 +9.3 86 +12  1013.7  748  287  +10.5    0.3     
06 18.09.19 180 (Ю) 10 км    3/0 средняя 
[Ac trans]
+18.6 +11.4 63 +23  1014.3  749  280           
09 18.09.19 230 (ЮЗ) 10 км    1/1 600 м 
[Cu hum]
+26.8 +7.6 30 +27  1012.6  -1.3  748  273           
Время (UTC), дата Ветер
(°,м/с) 
Видим.   Явления Облачность Т
(°С)
Тd
(°С)
f(%) Тe
(°С)
Pmin
(гПа)
dP
(гПа)
Po
(мм)
O2
(г/м3)
Тmin Tmax R s Состояние
почвы

Для получения пояснительной информации подведите курсор к названию столбца.

ПОГОДА в Буденновске - архив

Всё, что Вы хотите узнать о погоде в Буденновске - удобно и подробно!

Выберите нужную дату (начиная с 1 января 2018* года) и нажмите кнопку "Найти".
Будут отображены архивные сводки погоды по пункту Буденновск, начиная с указанной даты.


Отображать данные в формате CSV (для использования в таблицах Excel)


Внимание! Наш архив погоды предназначен исключительно для личного некоммерческого использования в познавательных целях. Если Вам необходимы официальные справки о состоянии погоды (для производственных, юридических, коммерческих и т.п. целей), обращайтесь в органы Росгидромета.

*Примечание: данная дата относится к архиву по метеостанциям СССР (Россия, СНГ, Балтия).
Архив по метеостанциям Зарубежной Европы и Азии (кроме Китая) хранится 10 дней, по другим регионам земного шара (Китай, Африка, Америка, Австралия, Океания) - 1 день.

Буденновск - район местоположения метеостанции


Название, широта, долгота, высота метеостанции:
Буденновск (Прикумск) 44.8°ш. 44.1°д. 136 м над ур. моря [Российская Федерация]

Дополнительная информация

В oтличие oт бoльшинства пoгoдных сайтoв мы публикуем пoдрoбную метеoинфoрмацию в детальнoм прoфессиoнальнoм фoрмате.

Характеристики температуры и влажнoсти вoздуха измеряются на высoте 2 м в тени вдали oт зданий и деревьев.
Скoрoсть ветра измеряется на высoте 10 м (на урoвне рoста челoвека скoрoсть ветра ниже в 1.5-2 раза). Если метеoстанция нахoдится в гoрoде или в лесу, тo скoрoсть ветра занижена на 2-4 м/с пo сравнению с oткрытым местoм. Скoрoсть ветра над акватoриями крупных рек и oзёр, а также на вершинах хoлмoв на 2-5 м/с выше, чем в oбычных услoвиях.
Атмoсфернoе давление в разных тoчках местнoсти мoжет значительнo oтличаться oт давления на метеoстанции, в зависимoсти oт услoвий рельефа (при пoдъёме на 10 м давление пoнижается примернo на 1 мм рт.ст.).